Temp
10 9 9 9 9 9 9 9 9 9 9 9 9 9 9 9 9 9 9 9 9 9 9 9 9 9 9 9 9 9 9 9 9 9 9 9 9 9 9 9 9 9 9 9 9 9 9 9 9 9 9 9 9 9 9 9 9 9 9 9 9 9 9 9 9 9 9 9 9 9 9 9 9 9 9 9 9 9 9 9 9 9 9 9 9
10 9 9 9 9 9 9 9 9 9 9 9 9 9 9 9 9 9 9 9 9 9 9 9 9 9 9 9 9 9 9 9 9 9 9 9 9 9 9 9 9 9 9 9 9 9 9 9 9 8 8 8 9 9 9 8 9 9 8 9 9 9 9 9 9 8 8 9 9 9 8 8 9 9 9 9 9 9 9 9 9 9 9 9 9
10 10 9 9 9 9 9 9 9 9 9 9 9 9 9 9 9 9 9 9 9 9 9 9 9 9 9 9 9 9 9 9 9 9 9 9 9 9 9 9 9 9 9 9 9 9 9 8 8 8 8 8 8 9 8 8 8 8 8 8 8 9 9 9 8 8 8 9 8 8 8 8 8 8 8 8 8 8 9 9 9 9 9 9 9
10 10 10 10 10 10 9 9 9 9 9 9 9 9 9 9 9 9 9 9 9 9 9 9 9 9 9 10 9 9 9 9 9 9 9 9 9 9 9 9 9 9 9 9 9 9 8 8 8 8 8 8 9 9 9 8 8 8 8 8 8 8 8 8 8 8 8 8 8 7 8 8 8 8 8 8 8 8 8 8 9 9 9 8 8
10 10 10 10 10 10 10 9 9 9 9 9 9 9 9 9 9 9 9 9 9 9 9 9 9 10 10 10 10 9 9 9 9 9 9 9 9 9 9 9 9 9 9 9 9 8 8 8 8 8 8 8 8 9 9 9 8 8 8 8 8 8 8 8 8 8 8 8 7 7 8 8 8 8 7 7 8 8 8 8 8 9 8 8 9
10 10 10 10 10 10 9 9 9 9 9 9 9 9 9 9 9 9 9 9 9 9 9 9 10 10 10 10 10 10 9 9 9 9 9 9 9 9 9 9 9 9 9 9 8 8 8 8 8 8 8 8 8 8 9 8 8 8 8 8 8 8 8 8 8 8 8 7 7 7 8 8 8 8 8 8 8 8 8 8 8 9 8 8 9
10 10 10 10 10 9 9 9 9 9 9 9 9 9 9 9 9 9 9 9 9 9 9 9 9 10 10 10 9 9 9 9 9 9 9 9 9 9 9 9 9 9 9 9 8 8 8 8 8 8 8 8 8 8 8 8 8 8 8 8 8 8 8 8 8 8 7 7 8 8 8 8 8 8 7 7 7 8 8 8 8 9 9 9 9
10 10 10 10 10 10 10 10 10 10 9 9 10 10 10 10 10 9 9 9 9 9 9 9 9 9 9 9 9 9 9 9 9 9 9 9 9 9 9 9 9 9 9 9 8 8 8 8 8 7 8 8 8 8 8 8 8 8 8 8 8 8 8 8 8 8 8 8 8 8 8 8 8 8 7 7 7 8 8 8 9 9 9 9 10
10 10 10 10 10 10 10 10 10 10 10 10 10 10 10 10 10 9 9 9 10 10 9 9 9 9 9 9 9 9 9 9 9 9 9 9 9 9 9 9 9 9 9 9 8 8 8 8 8 8 8 8 8 8 8 8 8 8 8 8 8 8 8 8 8 8 8 9 9 8 8 8 8 7 7 7 8 8 8 8 8 9 9 10 10
10 10 10 10 10 10 10 10 10 10 10 10 10 10 10 10 9 9 10 10 10 9 9 9 9 9 9 9 9 9 9 9 9 9 9 9 9 9 9 9 9 9 9 9 8 8 8 8 8 8 8 8 8 8 8 8 8 8 8 8 8 8 7 8 8 9 9 9 9 8 8 8 8 7 7 7 7 8 8 8 8 8 9 10 10
10 10 10 10 10 10 10 10 10 10 9 10 9 9 9 9 9 9 10 10 10 9 9 9 9 9 9 9 9 9 9 9 9 9 9 9 9 9 9 9 9 9 9 9 8 8 8 8 8 8 8 8 8 8 8 8 8 8 8 8 8 7 7 7 8 9 9 9 9 8 8 8 7 7 7 7 8 8 8 8 8 9 9 9 9
10 10 10 10 10 10 10 10 10 9 9 9 9 9 9 9 9 9 9 10 9 9 9 9 9 9 9 9 9 9 9 9 9 9 9 9 9 8 8 9 9 9 9 8 8 8 8 8 8 8 8 8 8 8 8 8 8 8 8 8 8 7 8 8 8 9 9 9 8 8 8 8 8 7 7 8 8 8 8 8 9 9 9 9 9
10 10 10 10 10 10 10 10 9 9 9 9 9 9 9 9 9 9 9 9 9 9 9 9 9 9 9 9 9 9 9 9 9 9 9 9 9 8 9 9 9 8 8 8 8 8 8 8 8 8 8 8 8 8 8 8 8 8 8 8 7 7 8 8 8 8 8 8 8 8 8 8 8 8 8 8 8 9 8 8 9 9 9 9 9
10 10 10 10 10 10 10 10 10 10 10 9 9 9 9 9 9 9 9 9 9 9 9 9 9 9 9 9 9 9 9 9 9 9 9 9 9 9 9 9 9 8 8 8 8 8 8 8 8 8 8 8 8 8 8 8 8 8 8 8 8 7 8 8 8 8 8 8 8 8 9 8 8 8 8 8 8 8 8 8 9 9 9 9 9
10 10 10 10 10 10 10 10 10 10 10 9 9 9 9 9 9 9 9 9 9 9 9 9 9 9 9 9 9 9 9 9 9 9 9 9 9 9 9 8 9 9 8 8 9 9 8 8 8 8 8 8 8 8 8 8 8 8 8 8 8 8 8 8 8 8 8 7 7 8 8 8 8 8 8 8 8 8 8 8 8 8 8 8 9
10 10 10 10 10 10 10 10 9 9 9 9 9 9 9 9 9 9 9 9 9 9 9 9 9 9 9 9 9 9 9 9 9 9 9 9 9 9 9 9 9 9 9 8 8 9 9 8 8 8 8 8 8 8 8 8 8 8 8 8 9 9 8 8 8 8 8 8 7 7 8 8 8 8 8 8 8 8 8 8 8 8 8 8 8
10 10 10 10 10 10 10 9 9 9 9 9 9 9 9 9 9 9 9 9 9 9 9 9 9 9 9 9 9 9 9 9 9 9 9 8 9 9 9 9 9 9 9 8 8 8 9 9 9 9 9 8 8 8 8 8 8 8 8 8 8 9 9 9 8 8 8 8 8 8 8 8 8 8 8 8 8 8 8 8 8 8 8 8 8
10 10 10 10 9 9 9 9 9 9 9 9 9 9 9 9 9 9 9 9 9 9 9 9 9 9 9 9 9 9 9 9 9 9 9 8 9 9 9 9 9 9 8 8 8 8 8 9 9 9 9 9 9 8 8 8 8 8 8 8 8 8 9 9 8 8 8 8 8 8 8 8 8 8 8 8 8 8 8 8 8 8 8 8 8
10 10 10 10 9 9 9 9 9 9 9 9 9 9 9 9 9 9 9 9 9 9 9 9 9 9 9 9 9 9 9 9 9 9 9 9 9 9 9 9 9 9 9 8 8 8 8 8 8 8 8 8 8 8 8 8 8 8 8 8 8 8 9 9 8 8 8 8 8 8 8 8 8 8 8 8 8 8 8 8 8 8 8 8 8
10 10 10 10 9 9 9 9 9 9 9 9 9 9 9 9 9 9 9 9 9 9 9 9 9 9 9 9 9 9 9 9 9 9 9 9 9 9 9 9 9 9 9 9 8 8 8 8 8 8 8 8 8 8 8 8 8 8 8 8 8 8 8 8 8 8 8 8 8 8 8 8 8 8 8 8 8 8 8 8 8 8 8 8 8
10 10 10 10 9 9 9 9 9 9 9 9 10 9 9 9 9 9 9 9 9 9 9 9 9 9 9 9 9 9 9 9 9 9 9 9 9 9 9 9 9 9 9 9 9 9 8 8 8 8 8 8 8 8 8 8 8 8 8 8 8 8 8 8 8 8 8 8 8 8 8 8 8 8 8 8 8 8 8 8 8 8 8 8 8
10 10 10 10 10 10 9 9 9 9 9 10 10 10 9 9 9 9 9 9 9 9 9 9 9 9 9 9 9 9 9 9 9 9 9 9 9 9 9 9 9 9 9 9 9 9 9 8 8 8 8 8 8 8 8 8 8 8 8 8 8 8 8 8 8 8 8 8 8 9 8 8 8 8 8 8 8 8 8 8 8 8 8 8 8
10 10 10 10 10 10 9 9 9 9 9 9 10 10 9 9 9 9 9 9 9 9 9 9 9 9 9 8 9 9 9 9 9 9 9 9 9 9 9 9 9 9 9 9 9 9 9 9 9 9 9 9 9 9 8 8 8 8 8 8 8 8 8 8 8 8 8 8 9 9 9 9 9 9 9 9 9 9 8 8 8 8 8 8 8
10 10 10 10 10 10 9 9 9 9 9 9 9 10 9 9 9 9 9 9 9 9 9 9 9 9 9 8 9 9 9 9 9 9 9 9 9 9 9 9 9 9 9 9 9 9 9 9 9 9 9 9 9 9 8 8 8 8 8 8 8 8 8 8 8 8 8 8 9 9 9 9 9 9 9 9 9 9 9 9 9 8 8 8 8
10 10 10 10 10 10 10 9 9 9 9 9 9 10 9 9 9 9 9 9 9 9 9 9 9 9 9 9 9 9 9 9 9 9 9 9 9 9 9 9 9 9 9 9 9 9 9 9 9 9 9 9 9 9 8 8 8 8 8 8 8 8 8 8 8 8 8 8 9 8 9 9 9 9 9 9 9 9 9 9 9 9 8 8 8
10 10 10 10 10 10 10 9 9 9 9 9 9 9 9 9 9 9 9 9 9 9 9 9 9 9 9 9 9 9 9 9 9 9 9 9 9 9 9 9 9 9 9 9 9 8 8 9 8 8 9 9 9 9 9 9 9 9 9 8 8 8 8 8 8 8 8 8 9 9 9 9 9 9 9 9 9 9 9 9 9 9 8 8 8
10 10 10 10 10 10 10 10 9 9 9 9 9 9 9 9 9 9 9 9 9 9 9 9 9 9 9 9 9 9 9 9 9 9 9 9 9 9 9 9 9 9 9 9 9 8 8 9 9 8 9 9 9 9 9 9 9 9 8 8 8 8 8 8 8 8 9 8 8 9 9 9 9 9 9 9 9 9 9 9 9 9 8 8 8
10 10 10 10 10 10 10 10 10 10 9 9 9 9 9 9 9 9 9 9 9 9 9 9 9 9 9 9 9 9 9 9 9 9 9 9 9 9 9 9 9 9 9 9 9 9 9 9 9 9 9 9 9 9 9 9 9 9 9 9 9 9 9 9 8 8 8 8 8 9 9 9 9 9 9 9 9 9 9 9 9 9 9 9 9
10 10 10 10 10 10 10 10 10 10 9 9 9 9 9 9 9 9 9 9 9 9 9 9 9 9 9 9 9 9 9 9 9 9 9 9 9 9 9 9 9 9 9 9 9 9 9 9 9 9 9 9 9 9 9 9 9 9 9 9 9 9 9 9 9 8 8 9 8 8 8 8 9 9 9 9 9 9 9 9 9 9 9 9 9
10 10 10 10 10 10 10 10 10 10 9 9 9 9 9 9 9 9 9 9 9 9 9 9 9 9 9 9 9 9 9 9 9 9 9 9 9 9 9 9 9 9 9 9 9 9 9 9 9 9 9 9 9 9 9 9 9 9 9 8 9 9 9 9 9 9 9 9 9 8 8 8 8 8 8 9 9 9 9 9 9 9 9 9 9
11 10 10 10 10 10 10 10 10 10 10 9 9 9 9 9 9 9 9 9 9 10 9 9 9 9 9 9 9 9 9 9 9 9 9 9 10 9 9 9 9 9 9 9 9 9 9 9 9 9 9 9 9 9 9 9 9 9 9 9 9 9 9 9 9 9 9 9 9 9 9 9 8 8 8 8 8 9 9 9 9 9 9 9 9
11 11 10 10 10 10 10 10 10 10 10 9 9 9 9 9 9 10 9 9 10 10 9 9 9 9 9 9 9 9 9 10 10 10 9 9 9 9 9 9 9 9 9 9 9 9 9 9 9 9 9 9 9 9 9 9 9 9 9 9 9 9 9 9 9 9 9 9 9 9 9 9 9 9 9 9 8 9 9 8 9 9 9 9 9
11 11 10 11 11 10 10 10 10 10 10 10 10 10 10 9 10 10 10 10 10 10 9 9 9 9 9 9 9 9 9 9 10 10 9 9 9 9 10 9 9 9 9 9 9 9 9 9 9 9 9 9 9 9 9 9 9 9 9 9 9 9 9 9 9 9 9 9 9 9 9 9 9 9 9 9 9 9 9 9 9 9 9 9 8
11 11 11 11 10 10 10 10 10 10 10 10 10 10 10 10 10 10 10 10 10 10 10 9 9 9 9 9 9 9 9 9 10 9 9 9 9 9 9 9 9 9 9 9 9 9 9 9 9 9 9 9 9 9 9 9 9 9 9 9 9 9 9 9 9 9 9 9 9 9 9 9 9 9 9 8 9 9 9 9 9 9 9 9 9
11 11 11 11 10 10 10 10 10 10 10 10 10 10 10 10 10 10 10 10 10 10 10 10 9 9 10 10 10 10 10 10 10 10 9 9 9 9 9 9 9 9 9 9 9 9 9 9 9 9 9 9 9 9 9 9 9 9 9 9 9 9 9 9 9 9 9 9 9 9 9 9 9 9 8 8 8 9 9 9 9 9 9 9 9
11 11 11 11 11 11 11 10 10 10 10 10 10 10 10 10 10 10 10 10 10 10 10 10 10 10 10 10 10 10 10 10 10 10 9 9 9 9 9 9 9 9 9 9 9 9 9 9 9 9 9 9 9 9 10 9 9 9 9 9 9 9 9 9 9 9 9 9 9 9 9 9 9 9 9 9 9 9 9 9 9 9 9 9 9
11 11 11 11 11 11 11 10 10 10 10 10 10 10 10 10 10 10 10 10 10 10 10 10 10 10 10 10 10 10 10 10 10 10 9 9 9 9 9 10 9 9 9 9 9 9 9 9 9 9 9 9 9 9 9 9 9 9 9 10 9 9 9 9 9 9 9 9 9 9 9 9 9 9 9 9 9 9 9 9 9 9 9 9 9
11 11 11 11 11 11 11 10 10 10 10 10 10 10 10 10 10 10 10 10 10 10 10 10 10 10 10 10 10 10 10 10 10 10 9 9 10 9 9 10 9 9 9 9 9 9 9 9 9 9 9 9 9 9 9 9 9 9 9 9 9 9 9 9 9 9 9 9 9 9 9 9 9 9 9 9 9 9 9 9 9 9 9 9 9
11 11 11 11 11 11 11 10 10 10 10 10 10 10 10 10 10 10 10 10 10 10 10 10 10 10 10 10 10 10 10 10 10 10 10 10 10 10 10 10 10 9 9 9 9 9 9 9 9 9 9 9 9 9 9 9 9 9 9 9 9 9 9 9 9 9 9 9 9 9 9 9 9 9 9 9 9 9 9 9 9 9 9 9 9
11 11 11 11 11 11 11 10 10 10 10 10 10 10 10 10 10 10 10 10 10 10 10 10 10 10 10 10 10 10 10 10 10 10 10 10 10 10 10 10 10 10 9 9 9 9 9 9 9 9 9 9 9 9 9 9 9 9 9 9 10 9 9 9 9 9 9 9 9 9 9 10 10 10 9 9 9 9 9 9 9 9 9 9 9
11 11 11 11 11 11 11 11 11 11 11 11 10 10 10 10 10 10 10 10 10 10 10 10 10 10 10 10 10 10 10 10 10 10 10 10 10 10 10 10 10 10 10 9 9 9 9 9 9 10 10 10 9 9 9 9 9 9 9 9 9 9 9 9 9 9 9 10 10 10 10 10 10 10 10 10 9 9 9 9 9 9 9 9 9
12 11 11 11 11 11 11 11 11 11 11 11 11 10 10 10 10 10 10 10 10 10 9 10 10 10 10 10 10 10 10 10 10 10 10 10 10 10 10 10 10 10 10 10 10 10 10 9 10 10 10 10 9 9 9 9 9 9 9 9 9 9 9 9 9 9 9 10 10 10 10 9 10 10 10 10 10 9 9 9 9 9 9 9 9
12 12 12 11 11 11 11 11 11 11 11 11 11 11 10 10 10 10 10 10 10 10 10 10 10 10 10 10 10 10 10 10 10 10 10 10 10 10 10 10 10 10 10 10 10 10 10 10 10 10 9 9 9 10 9 9 9 9 9 9 9 9 9 9 9 9 9 10 10 9 10 9 10 10 10 9 9 9 9 9 9 9 9 9 9
12 12 12 12 11 11 11 11 11 11 11 11 11 11 10 10 10 10 10 10 10 10 10 10 10 10 10 10 10 10 10 10 10 10 10 10 10 10 10 10 10 10 10 10 10 10 10 10 10 10 9 9 10 10 9 9 9 9 9 9 8 8 8 9 9 9 9 9 9 9 9 9 9 9 9 9 9 9 9 9 9 9 9 9 9
13 12 12 12 12 12 12 11 11 11 11 11 11 11 10 10 10 10 10 10 10 10 10 10 10 10 10 10 10 10 10 10 10 10 10 10 10 10 10 10 10 10 10 10 10 10 10 10 10 10 9 9 10 10 10 9 9 10 9 9 8 8 8 8 8 8 8 7 8 8 9 9 9 9 9 9 9 9 9 9 9 9 9 9 9
13 13 12 12 12 12 12 11 11 11 11 11 11 11 11 10 10 10 10 10 10 10 10 10 10 10 10 10 10 10 10 10 10 10 10 10 10 10 10 10 10 10 10 10 10 10 10 10 10 10 10 10 10 10 10 10 10 10 10 9 9 8 8 8 8 8 8 7 7 8 9 9 9 9 9 10 10 10 10 10 10 10 10 10 10
13 13 12 12 12 12 12 12 12 11 11 11 11 11 11 11 10 10 10 10 11 10 10 10 10 10 10 10 10 10 10 10 10 10 10 10 10 10 10 10 10 10 10 10 10 10 10 10 10 10 10 10 10 10 10 10 10 10 10 9 9 8 8 8 8 8 8 8 8 7 8 8 8 8 9 9 9 10 10 10 10 10 10 10 10
13 13 13 12 12 12 12 12 12 12 12 12 11 11 11 11 11 11 10 10 10 10 10 10 10 10 10 10 10 10 10 10 10 10 10 10 10 10 10 10 10 10 10 10 10 10 10 10 10 10 10 10 10 10 10 10 10 10 10 10 9 9 9 9 8 8 8 8 8 8 8 8 8 8 8 8 9 10 10 10 10 10 10 10 10
13 13 13 13 13 12 12 12 12 12 12 12 12 11 12 11 11 11 11 11 11 10 10 10 10 10 10 10 10 10 10 10 10 10 10 10 10 10 10 10 10 10 10 10 10 10 10 10 10 10 10 10 10 10 10 10 10 10 10 10 10 10 10 9 9 9 9 8 8 8 8 8 8 8 9 9 9 10 10 10 10 10 11 11 11
13 13 13 13 13 13 12 12 12 12 12 12 12 12 12 12 11 11 11 11 11 11 10 10 10 10 10 10 10 10 10 10 10 10 10 10 10 10 10 10 10 10 10 10 10 10 10 10 10 10 10 10 10 10 10 10 10 10 10 10 10 10 10 9 9 8 8 9 8 8 8 8 8 9 10 10 10 10 10 10 11 11 11 11 11
13 13 13 13 13 13 13 12 12 12 12 12 12 11 12 12 12 11 11 11 11 11 11 10 10 10 10 10 10 10 10 10 10 10 10 10 10 10 10 10 10 10 10 10 10 11 11 11 10 10 10 10 10 10 10 10 10 10 10 10 10 10 10 10 9 8 9 9 9 8 8 8 9 9 10 10 10 11 11 11 11 11 11 11 12
Height
3181 3182 3183 3184 3186 3187 3187 3189 3190 3192 3192 3194 3195 3196 3196 3197 3198 3199 3200 3200 3201 3201 3201 3202 3202 3203 3203 3204 3204 3205 3205 3205 3205 3205 3205 3205 3206 3205 3205 3205 3205 3205 3205 3205 3204 3204 3204 3203 3203 3203 3203 3204 3205 3207 3207 3207 3207 3207 3207 3207 3207 3207 3207 3207 3208 3208 3209 3210 3210 3210 3210 3211 3212 3212 3213 3213 3213 3213 3213 3213 3214 3214 3214 3214 3214
3181 3182 3183 3185 3188 3189 3190 3191 3192 3193 3194 3195 3196 3196 3197 3198 3199 3200 3201 3201 3202 3202 3202 3203 3203 3204 3204 3205 3205 3205 3205 3206 3206 3206 3206 3206 3206 3206 3206 3205 3205 3205 3205 3205 3205 3204 3204 3204 3203 3204 3204 3206 3207 3207 3207 3207 3208 3208 3207 3207 3208 3208 3208 3208 3208 3208 3209 3210 3211 3210 3210 3211 3212 3212 3213 3213 3213 3214 3214 3213 3214 3215 3214 3214 3215
3182 3183 3184 3186 3188 3189 3191 3192 3194 3195 3195 3196 3197 3197 3198 3199 3200 3201 3202 3202 3202 3203 3203 3204 3204 3205 3205 3206 3206 3206 3206 3207 3207 3207 3207 3207 3207 3206 3206 3206 3206 3206 3205 3205 3205 3205 3204 3204 3204 3206 3207 3208 3208 3208 3208 3208 3209 3208 3207 3208 3209 3208 3208 3209 3208 3208 3210 3211 3210 3209 3210 3211 3212 3213 3213 3214 3213 3213 3214 3214 3214 3215 3215 3215 3215
3183 3184 3186 3187 3188 3190 3191 3192 3194 3195 3196 3197 3197 3198 3199 3200 3201 3201 3202 3203 3203 3203 3204 3205 3205 3206 3206 3206 3207 3207 3207 3208 3208 3207 3207 3207 3207 3207 3207 3207 3206 3206 3206 3206 3206 3206 3205 3205 3206 3208 3209 3209 3209 3209 3209 3208 3209 3208 3208 3209 3209 3209 3209 3209 3209 3209 3210 3211 3209 3210 3212 3212 3213 3213 3214 3214 3213 3213 3214 3214 3214 3215 3216 3216 3216
3184 3185 3187 3189 3190 3192 3192 3194 3194 3196 3197 3197 3198 3199 3200 3201 3201 3202 3202 3203 3203 3204 3205 3206 3206 3206 3207 3207 3208 3208 3208 3208 3208 3208 3207 3207 3207 3207 3207 3207 3207 3207 3206 3206 3206 3207 3207 3207 3208 3208 3208 3209 3209 3210 3210 3209 3208 3208 3208 3209 3210 3209 3210 3210 3210 3210 3211 3211 3211 3211 3213 3213 3213 3213 3214 3215 3214 3214 3215 3215 3216 3216 3217 3217 3216
3186 3187 3188 3190 3191 3193 3194 3195 3195 3196 3197 3198 3199 3200 3200 3201 3202 3202 3203 3203 3204 3205 3206 3206 3207 3207 3208 3208 3209 3209 3208 3208 3208 3208 3207 3207 3208 3208 3208 3207 3207 3207 3207 3207 3207 3208 3208 3208 3208 3209 3209 3209 3210 3210 3210 3210 3209 3208 3209 3210 3210 3210 3211 3211 3211 3211 3211 3211 3212 3212 3213 3214 3214 3214 3215 3216 3216 3216 3216 3216 3217 3217 3217 3218 3217
3187 3188 3189 3191 3192 3194 3194 3195 3196 3197 3198 3199 3200 3201 3201 3202 3203 3203 3204 3205 3205 3206 3207 3207 3207 3208 3208 3209 3209 3209 3209 3209 3208 3208 3208 3208 3208 3208 3208 3208 3208 3208 3208 3207 3207 3208 3210 3209 3209 3209 3210 3210 3210 3211 3211 3211 3210 3210 3211 3211 3211 3211 3212 3212 3213 3213 3212 3212 3212 3213 3214 3215 3215 3215 3215 3216 3216 3217 3217 3217 3217 3218 3218 3218 3218
3188 3189 3191 3192 3193 3194 3195 3196 3197 3198 3199 3200 3201 3201 3202 3203 3204 3204 3205 3206 3206 3207 3208 3208 3208 3208 3209 3209 3209 3209 3209 3209 3209 3209 3209 3209 3209 3209 3209 3209 3209 3209 3209 3208 3207 3209 3211 3211 3209 3210 3210 3211 3212 3212 3212 3212 3211 3211 3212 3213 3213 3213 3212 3213 3214 3214 3213 3212 3213 3213 3214 3216 3216 3216 3216 3216 3217 3218 3218 3218 3218 3219 3219 3219 3219
3189 3191 3192 3193 3194 3195 3196 3197 3198 3199 3200 3201 3202 3202 3203 3204 3205 3206 3206 3207 3208 3208 3209 3209 3209 3209 3209 3210 3210 3210 3209 3209 3209 3210 3210 3209 3209 3209 3209 3210 3210 3210 3210 3209 3208 3209 3212 3212 3211 3210 3211 3211 3212 3213 3213 3213 3213 3213 3213 3214 3214 3213 3214 3214 3215 3216 3214 3214 3215 3215 3216 3217 3217 3217 3217 3218 3218 3219 3219 3219 3219 3220 3220 3220 3220
3190 3192 3193 3194 3195 3196 3197 3198 3199 3200 3201 3202 3203 3203 3204 3205 3206 3206 3207 3208 3209 3209 3210 3210 3210 3210 3210 3211 3211 3210 3210 3210 3210 3210 3210 3210 3210 3210 3210 3211 3211 3211 3211 3211 3210 3209 3212 3213 3212 3212 3212 3213 3213 3214 3214 3214 3214 3214 3214 3215 3214 3215 3215 3214 3216 3218 3217 3216 3216 3217 3217 3218 3218 3218 3219 3219 3220 3220 3220 3220 3221 3221 3221 3221 3221
3192 3193 3194 3195 3197 3198 3198 3199 3200 3201 3202 3203 3203 3204 3205 3206 3207 3207 3208 3209 3210 3210 3210 3211 3211 3211 3211 3212 3212 3211 3211 3211 3211 3211 3211 3211 3212 3212 3211 3212 3212 3212 3212 3212 3211 3211 3212 3214 3213 3212 3213 3214 3214 3215 3215 3215 3215 3215 3216 3216 3216 3216 3216 3215 3217 3218 3218 3218 3218 3217 3218 3219 3219 3219 3220 3220 3221 3221 3221 3222 3223 3223 3223 3223 3222
3193 3194 3195 3196 3198 3198 3199 3200 3201 3202 3203 3204 3204 3205 3206 3207 3208 3209 3209 3210 3211 3211 3211 3211 3212 3212 3212 3212 3213 3213 3212 3212 3213 3213 3213 3213 3213 3213 3213 3213 3213 3213 3213 3213 3213 3212 3213 3214 3214 3214 3214 3215 3215 3215 3216 3216 3216 3216 3217 3217 3217 3217 3216 3217 3218 3218 3218 3220 3219 3219 3219 3220 3220 3221 3221 3222 3222 3222 3223 3223 3224 3224 3224 3224 3224
3194 3195 3196 3197 3198 3199 3200 3201 3202 3202 3204 3204 3205 3206 3207 3208 3209 3209 3210 3211 3212 3212 3212 3212 3213 3213 3213 3214 3214 3214 3214 3214 3214 3214 3214 3214 3214 3214 3215 3215 3214 3214 3214 3214 3214 3214 3214 3214 3215 3215 3215 3215 3216 3216 3217 3217 3217 3218 3218 3219 3218 3218 3218 3218 3219 3219 3219 3221 3222 3221 3220 3221 3221 3222 3222 3223 3224 3224 3224 3224 3224 3224 3225 3225 3225
3195 3196 3197 3198 3199 3200 3201 3202 3202 3203 3204 3205 3206 3207 3208 3209 3210 3210 3211 3212 3212 3213 3213 3213 3214 3214 3215 3215 3215 3215 3215 3215 3215 3215 3216 3216 3216 3216 3216 3215 3215 3215 3215 3215 3215 3215 3215 3215 3215 3215 3216 3217 3217 3217 3218 3218 3218 3219 3220 3221 3220 3220 3221 3220 3220 3220 3220 3221 3224 3224 3222 3223 3223 3223 3224 3225 3225 3225 3225 3225 3225 3226 3226 3226 3226
3196 3197 3198 3199 3200 3201 3202 3203 3203 3204 3205 3206 3206 3207 3209 3209 3210 3211 3211 3212 3213 3214 3214 3214 3215 3216 3216 3216 3216 3216 3216 3216 3216 3216 3217 3217 3217 3217 3216 3216 3216 3216 3216 3217 3217 3217 3217 3217 3216 3216 3217 3218 3218 3219 3219 3220 3220 3221 3221 3222 3222 3222 3222 3221 3221 3221 3221 3220 3222 3224 3225 3224 3225 3225 3225 3226 3226 3226 3226 3226 3227 3227 3227 3228 3227
3196 3198 3199 3200 3201 3202 3203 3203 3204 3205 3206 3206 3207 3208 3209 3210 3211 3212 3212 3213 3214 3215 3215 3215 3216 3217 3217 3217 3217 3217 3217 3217 3217 3217 3218 3218 3218 3217 3217 3217 3217 3217 3217 3218 3218 3218 3219 3219 3218 3218 3218 3219 3220 3220 3221 3221 3222 3222 3223 3223 3223 3223 3223 3222 3223 3223 3222 3220 3220 3222 3224 3225 3226 3226 3226 3227 3227 3227 3227 3228 3228 3228 3228 3229 3228
3197 3199 3200 3201 3202 3202 3203 3204 3205 3206 3207 3207 3208 3209 3210 3211 3212 3213 3213 3214 3215 3216 3217 3217 3217 3217 3218 3218 3218 3218 3218 3218 3219 3219 3219 3218 3218 3219 3219 3218 3219 3219 3218 3218 3219 3219 3220 3221 3221 3221 3221 3221 3221 3222 3222 3223 3223 3223 3224 3224 3225 3225 3224 3223 3224 3224 3224 3224 3222 3222 3224 3226 3226 3227 3227 3227 3228 3228 3228 3229 3229 3229 3229 3229 3229
3198 3199 3200 3201 3202 3203 3204 3205 3205 3206 3207 3208 3209 3210 3211 3212 3213 3214 3214 3215 3216 3217 3218 3219 3219 3219 3219 3220 3220 3220 3220 3220 3220 3220 3220 3220 3220 3220 3220 3220 3220 3220 3220 3220 3220 3220 3221 3221 3222 3223 3224 3224 3224 3224 3223 3223 3224 3224 3225 3225 3226 3226 3225 3225 3224 3224 3224 3225 3225 3225 3226 3227 3227 3228 3228 3228 3229 3229 3229 3230 3230 3230 3230 3230 3230
3198 3200 3201 3202 3203 3203 3204 3205 3206 3207 3208 3209 3210 3211 3212 3213 3214 3215 3215 3216 3217 3218 3219 3219 3220 3220 3220 3221 3221 3221 3221 3221 3221 3222 3221 3221 3222 3222 3222 3222 3222 3222 3222 3222 3222 3222 3222 3222 3222 3223 3224 3224 3225 3224 3224 3224 3225 3225 3226 3226 3227 3227 3227 3227 3226 3225 3225 3225 3226 3226 3227 3227 3228 3228 3229 3229 3230 3230 3230 3230 3231 3231 3231 3231 3231
3199 3200 3201 3202 3203 3204 3205 3206 3207 3208 3209 3210 3211 3212 3213 3214 3215 3216 3217 3217 3218 3219 3219 3220 3220 3221 3221 3222 3222 3222 3223 3222 3222 3223 3222 3223 3223 3223 3223 3223 3223 3223 3223 3223 3223 3223 3223 3223 3223 3223 3223 3224 3224 3224 3225 3225 3226 3226 3227 3227 3227 3227 3228 3228 3228 3227 3227 3227 3227 3227 3228 3229 3229 3230 3230 3230 3231 3231 3231 3231 3231 3232 3232 3232 3232
3199 3200 3202 3202 3204 3205 3205 3206 3207 3209 3209 3210 3212 3213 3213 3214 3216 3217 3217 3218 3219 3219 3220 3220 3221 3222 3222 3223 3223 3223 3224 3224 3224 3224 3224 3224 3224 3224 3224 3224 3224 3224 3224 3224 3224 3224 3224 3224 3224 3224 3224 3225 3225 3226 3226 3226 3227 3227 3228 3228 3228 3228 3228 3229 3229 3229 3229 3229 3229 3229 3229 3230 3230 3231 3231 3231 3231 3231 3232 3232 3232 3232 3233 3233 3233
3199 3201 3202 3203 3204 3205 3206 3207 3208 3209 3210 3211 3212 3213 3214 3215 3216 3217 3218 3219 3219 3220 3220 3221 3222 3223 3224 3224 3224 3224 3224 3225 3225 3225 3225 3225 3225 3225 3225 3225 3225 3225 3225 3225 3225 3225 3225 3225 3225 3225 3226 3226 3226 3227 3227 3227 3228 3228 3228 3229 3229 3229 3229 3230 3230 3230 3230 3230 3230 3230 3231 3231 3231 3231 3232 3232 3232 3232 3232 3232 3232 3233 3233 3233 3234
3199 3201 3202 3203 3204 3206 3206 3207 3209 3210 3211 3212 3213 3214 3215 3216 3217 3218 3219 3219 3220 3221 3222 3222 3223 3224 3225 3226 3225 3225 3225 3225 3226 3226 3226 3226 3225 3225 3226 3226 3226 3226 3226 3226 3226 3226 3226 3226 3226 3227 3227 3227 3227 3227 3228 3228 3228 3229 3229 3229 3229 3230 3230 3231 3231 3231 3231 3231 3231 3231 3231 3231 3232 3232 3232 3232 3232 3232 3233 3233 3233 3233 3233 3234 3234
3200 3201 3202 3204 3205 3206 3207 3208 3209 3211 3212 3213 3214 3215 3216 3217 3218 3218 3219 3220 3221 3222 3223 3223 3224 3224 3225 3226 3226 3226 3226 3227 3227 3227 3227 3227 3227 3227 3227 3227 3227 3227 3227 3227 3227 3227 3227 3227 3227 3228 3227 3228 3228 3228 3229 3229 3229 3230 3230 3230 3231 3231 3231 3232 3232 3232 3232 3232 3232 3232 3232 3232 3232 3233 3233 3233 3233 3233 3233 3233 3233 3233 3233 3234 3234
3200 3201 3202 3204 3205 3206 3208 3209 3210 3211 3213 3214 3215 3216 3216 3217 3218 3219 3220 3221 3222 3223 3223 3224 3225 3225 3225 3226 3227 3227 3227 3228 3228 3228 3228 3228 3228 3228 3228 3228 3228 3228 3228 3228 3228 3228 3228 3228 3229 3229 3229 3229 3230 3230 3230 3230 3230 3231 3231 3231 3232 3232 3232 3233 3233 3233 3233 3233 3233 3233 3233 3234 3234 3233 3233 3233 3233 3233 3233 3233 3233 3233 3234 3234 3234
3200 3201 3203 3204 3205 3207 3208 3209 3211 3212 3213 3214 3215 3216 3217 3218 3219 3219 3220 3221 3222 3223 3224 3225 3226 3226 3226 3227 3228 3228 3228 3229 3229 3230 3230 3229 3229 3229 3228 3228 3228 3228 3229 3229 3229 3229 3229 3230 3230 3230 3230 3230 3231 3231 3231 3232 3232 3232 3232 3232 3232 3233 3233 3233 3234 3234 3234 3234 3235 3235 3235 3235 3235 3235 3234 3234 3234 3234 3234 3234 3234 3234 3234 3234 3235
3200 3202 3203 3204 3205 3207 3208 3209 3211 3212 3213 3214 3216 3216 3217 3218 3219 3220 3221 3222 3222 3224 3225 3225 3226 3226 3227 3227 3228 3229 3229 3229 3230 3231 3231 3231 3230 3230 3230 3229 3229 3229 3230 3230 3230 3230 3230 3231 3231 3231 3231 3231 3232 3232 3233 3233 3233 3233 3233 3233 3233 3234 3234 3234 3235 3235 3235 3235 3235 3236 3235 3236 3236 3236 3235 3235 3235 3235 3235 3235 3235 3235 3235 3235 3235
3200 3201 3203 3204 3205 3207 3208 3210 3211 3212 3214 3215 3216 3217 3218 3218 3219 3220 3221 3222 3223 3224 3225 3226 3226 3227 3227 3228 3228 3229 3230 3230 3231 3231 3232 3231 3231 3231 3231 3231 3230 3230 3231 3232 3231 3231 3231 3231 3232 3232 3232 3232 3233 3233 3234 3234 3234 3234 3235 3235 3235 3235 3235 3235 3235 3236 3236 3236 3236 3236 3236 3236 3236 3236 3236 3236 3236 3236 3236 3236 3236 3236 3236 3236 3236
3200 3202 3203 3204 3206 3207 3208 3210 3211 3213 3214 3215 3216 3217 3218 3219 3220 3221 3221 3222 3223 3224 3225 3226 3227 3227 3228 3228 3229 3229 3230 3231 3231 3231 3231 3231 3231 3232 3232 3231 3231 3231 3232 3232 3232 3232 3232 3232 3233 3233 3233 3233 3234 3234 3235 3235 3235 3235 3236 3236 3236 3236 3236 3236 3236 3236 3237 3237 3237 3237 3237 3237 3237 3237 3237 3237 3237 3237 3237 3237 3237 3237 3237 3237 3238
3200 3202 3203 3204 3206 3207 3209 3210 3212 3213 3214 3215 3216 3218 3218 3219 3220 3221 3222 3223 3224 3225 3226 3227 3227 3228 3228 3229 3230 3230 3230 3231 3231 3232 3232 3232 3232 3232 3233 3232 3233 3233 3233 3233 3233 3233 3233 3233 3233 3234 3234 3234 3234 3235 3236 3236 3236 3236 3237 3237 3237 3237 3238 3238 3237 3237 3237 3238 3238 3238 3239 3239 3238 3238 3238 3238 3238 3238 3238 3238 3238 3238 3238 3238 3239
3200 3201 3203 3204 3206 3207 3209 3210 3212 3213 3214 3215 3217 3218 3219 3220 3221 3222 3223 3223 3224 3225 3226 3227 3228 3228 3229 3229 3230 3230 3230 3231 3232 3232 3232 3233 3233 3233 3233 3233 3234 3234 3234 3234 3234 3234 3234 3234 3234 3235 3235 3235 3236 3236 3236 3237 3237 3237 3237 3237 3238 3238 3238 3239 3239 3238 3238 3238 3239 3240 3240 3240 3239 3239 3239 3239 3239 3239 3239 3240 3240 3240 3240 3240 3240
3200 3201 3202 3204 3206 3207 3209 3210 3212 3213 3214 3215 3217 3218 3219 3220 3221 3222 3223 3224 3225 3226 3227 3227 3228 3228 3229 3230 3230 3231 3231 3231 3232 3232 3233 3233 3234 3234 3234 3234 3234 3235 3234 3235 3235 3235 3235 3235 3235 3235 3235 3236 3237 3237 3237 3237 3238 3238 3238 3238 3239 3239 3239 3240 3240 3240 3240 3240 3240 3240 3240 3241 3241 3241 3241 3241 3241 3241 3241 3241 3241 3241 3241 3241 3241
3199 3201 3202 3204 3206 3207 3209 3210 3212 3213 3215 3216 3217 3219 3220 3221 3222 3223 3224 3225 3226 3226 3227 3228 3228 3229 3230 3230 3231 3231 3232 3232 3232 3232 3233 3234 3234 3235 3235 3235 3235 3236 3235 3236 3236 3235 3235 3235 3236 3236 3235 3236 3237 3238 3238 3238 3238 3239 3239 3239 3239 3240 3240 3241 3241 3241 3241 3241 3241 3241 3241 3242 3241 3241 3242 3242 3242 3242 3242 3242 3242 3242 3242 3242 3242
3199 3200 3202 3204 3205 3207 3208 3210 3212 3213 3215 3216 3217 3219 3220 3221 3222 3224 3224 3225 3226 3227 3228 3228 3229 3230 3230 3231 3231 3232 3232 3232 3233 3232 3233 3234 3234 3235 3235 3235 3236 3236 3235 3236 3236 3236 3235 3235 3236 3236 3236 3237 3237 3238 3238 3238 3239 3239 3240 3240 3240 3241 3241 3242 3242 3242 3242 3242 3243 3242 3242 3242 3242 3242 3243 3243 3243 3243 3243 3243 3243 3243 3243 3243 3243
3198 3200 3202 3203 3205 3207 3208 3210 3212 3213 3215 3216 3218 3219 3220 3222 3223 3224 3225 3226 3227 3228 3228 3229 3230 3230 3231 3231 3232 3232 3233 3233 3233 3233 3234 3234 3234 3235 3236 3236 3236 3235 3235 3236 3235 3236 3236 3236 3236 3236 3237 3237 3237 3238 3239 3239 3239 3240 3240 3241 3241 3241 3242 3243 3243 3243 3243 3243 3244 3244 3244 3244 3243 3243 3243 3244 3244 3244 3244 3244 3244 3244 3244 3243 3243
3198 3200 3201 3203 3204 3206 3208 3210 3212 3213 3215 3216 3218 3219 3220 3222 3223 3224 3225 3226 3227 3228 3229 3230 3230 3231 3231 3232 3232 3233 3233 3234 3234 3234 3234 3235 3235 3236 3236 3236 3237 3236 3235 3236 3236 3237 3237 3236 3236 3236 3237 3238 3238 3238 3239 3239 3240 3240 3241 3241 3241 3242 3243 3244 3244 3244 3244 3244 3244 3245 3245 3245 3244 3244 3244 3244 3244 3244 3244 3244 3245 3244 3244 3244 3244
3197 3199 3201 3202 3204 3206 3208 3210 3211 3213 3214 3216 3218 3219 3220 3222 3223 3224 3225 3226 3227 3228 3229 3230 3231 3231 3232 3232 3233 3233 3234 3234 3234 3235 3235 3235 3235 3236 3236 3237 3238 3237 3236 3236 3237 3238 3237 3236 3237 3237 3238 3239 3239 3239 3240 3240 3240 3241 3241 3242 3242 3243 3244 3244 3244 3244 3244 3245 3245 3245 3245 3246 3246 3245 3245 3245 3245 3245 3245 3245 3245 3245 3245 3244 3244
3196 3198 3200 3202 3204 3206 3207 3209 3211 3213 3214 3216 3217 3219 3220 3222 3223 3224 3225 3226 3227 3228 3229 3230 3231 3231 3232 3233 3233 3233 3234 3235 3235 3235 3235 3234 3235 3237 3237 3237 3238 3237 3237 3237 3237 3238 3237 3237 3237 3238 3239 3239 3239 3240 3240 3240 3241 3241 3242 3242 3243 3244 3244 3245 3244 3245 3245 3245 3245 3245 3246 3246 3246 3246 3246 3245 3245 3245 3245 3245 3245 3245 3245 3244 3244
3195 3197 3199 3201 3203 3205 3206 3208 3210 3212 3214 3215 3217 3219 3220 3222 3223 3224 3225 3227 3227 3228 3229 3230 3231 3232 3232 3233 3234 3234 3234 3235 3235 3235 3235 3235 3236 3237 3238 3238 3238 3237 3237 3237 3238 3238 3237 3237 3238 3238 3239 3239 3239 3240 3240 3241 3241 3242 3242 3243 3244 3244 3244 3245 3245 3245 3245 3245 3245 3246 3246 3246 3246 3246 3247 3246 3246 3246 3246 3246 3246 3245 3244 3244 3244
3193 3195 3198 3200 3202 3203 3205 3207 3209 3211 3213 3215 3216 3218 3220 3221 3223 3224 3226 3227 3228 3229 3229 3230 3231 3232 3232 3233 3234 3234 3235 3235 3235 3236 3236 3236 3236 3237 3238 3239 3239 3239 3238 3238 3238 3238 3238 3238 3239 3239 3239 3239 3240 3240 3241 3241 3242 3242 3243 3243 3244 3244 3245 3245 3245 3245 3246 3246 3246 3246 3246 3246 3246 3246 3247 3247 3247 3247 3247 3247 3246 3245 3245 3244 3244
3192 3194 3196 3198 3200 3202 3204 3206 3208 3210 3212 3214 3216 3217 3219 3221 3223 3224 3226 3227 3228 3229 3230 3231 3231 3232 3233 3233 3234 3234 3235 3235 3236 3236 3237 3237 3237 3237 3238 3238 3239 3239 3239 3238 3239 3239 3239 3239 3239 3240 3240 3240 3240 3240 3241 3241 3242 3243 3243 3244 3244 3245 3245 3245 3245 3246 3246 3247 3247 3247 3247 3247 3247 3247 3247 3247 3247 3247 3247 3247 3246 3246 3245 3244 3244
3190 3192 3194 3197 3199 3201 3203 3205 3207 3209 3211 3213 3215 3217 3219 3221 3223 3224 3226 3227 3228 3229 3230 3231 3231 3232 3233 3233 3234 3235 3235 3236 3236 3237 3237 3237 3238 3238 3238 3238 3239 3239 3239 3239 3239 3240 3240 3240 3240 3241 3241 3240 3240 3240 3241 3242 3242 3243 3243 3244 3245 3245 3246 3246 3246 3246 3247 3247 3247 3247 3247 3247 3247 3247 3247 3247 3247 3247 3247 3247 3246 3246 3245 3244 3244
3188 3191 3193 3195 3198 3200 3202 3204 3206 3208 3210 3212 3214 3216 3218 3220 3222 3224 3225 3226 3228 3228 3229 3230 3231 3232 3233 3233 3234 3235 3235 3236 3236 3237 3238 3238 3238 3238 3238 3239 3239 3240 3240 3239 3240 3241 3241 3241 3241 3241 3241 3241 3241 3241 3241 3242 3242 3243 3243 3244 3245 3246 3246 3247 3247 3247 3247 3247 3247 3248 3248 3248 3248 3247 3247 3247 3247 3247 3247 3247 3246 3246 3245 3245 3244
3187 3189 3191 3194 3196 3198 3200 3203 3205 3207 3209 3211 3213 3216 3217 3219 3221 3223 3224 3226 3227 3228 3229 3230 3231 3232 3233 3233 3234 3235 3236 3236 3237 3237 3238 3239 3239 3239 3239 3240 3240 3241 3241 3240 3241 3242 3242 3242 3242 3242 3242 3241 3241 3241 3242 3242 3242 3243 3244 3244 3246 3247 3248 3248 3248 3247 3248 3248 3248 3248 3248 3248 3248 3248 3248 3247 3247 3247 3247 3247 3246 3246 3246 3245 3245
3184 3187 3189 3192 3194 3196 3199 3201 3204 3206 3208 3210 3212 3214 3216 3218 3219 3221 3223 3224 3226 3227 3229 3230 3231 3232 3233 3234 3234 3235 3236 3237 3237 3238 3238 3239 3239 3240 3240 3240 3241 3241 3242 3242 3242 3243 3243 3243 3243 3243 3243 3242 3242 3242 3242 3242 3243 3244 3244 3245 3246 3247 3249 3249 3248 3248 3250 3251 3250 3249 3248 3248 3249 3249 3249 3248 3248 3248 3247 3247 3247 3247 3246 3246 3246
3183 3186 3188 3191 3193 3195 3198 3200 3202 3205 3207 3209 3211 3213 3215 3216 3218 3220 3222 3223 3225 3227 3229 3230 3231 3232 3233 3234 3234 3235 3236 3237 3238 3238 3239 3240 3240 3240 3240 3241 3241 3242 3242 3243 3243 3243 3243 3244 3244 3243 3243 3243 3243 3243 3243 3243 3244 3244 3245 3246 3247 3248 3249 3249 3249 3249 3250 3251 3251 3250 3249 3249 3249 3249 3249 3249 3248 3248 3248 3248 3247 3247 3247 3247 3247
3182 3184 3187 3189 3191 3193 3196 3199 3201 3203 3205 3207 3210 3211 3213 3215 3217 3220 3221 3223 3225 3227 3228 3229 3230 3232 3232 3233 3234 3235 3236 3237 3238 3238 3239 3240 3240 3241 3241 3241 3242 3242 3243 3243 3244 3243 3243 3244 3244 3244 3244 3244 3244 3244 3244 3244 3244 3245 3246 3246 3247 3248 3249 3249 3249 3250 3250 3251 3251 3251 3250 3250 3251 3251 3250 3249 3249 3249 3249 3248 3248 3248 3248 3248 3248
3180 3183 3185 3187 3189 3191 3194 3197 3199 3201 3204 3206 3208 3210 3212 3214 3216 3218 3220 3222 3225 3226 3227 3229 3230 3231 3232 3233 3234 3235 3236 3237 3238 3238 3239 3240 3240 3241 3242 3242 3242 3243 3244 3244 3244 3244 3245 3245 3245 3245 3245 3245 3245 3245 3245 3245 3245 3246 3246 3247 3247 3248 3248 3249 3249 3249 3251 3252 3252 3253 3253 3251 3252 3253 3252 3251 3250 3250 3250 3249 3249 3249 3249 3249 3249
3178 3181 3183 3185 3187 3190 3192 3195 3198 3200 3202 3204 3207 3209 3211 3213 3215 3217 3219 3221 3223 3225 3226 3227 3228 3230 3231 3232 3233 3234 3236 3237 3238 3238 3239 3240 3240 3241 3242 3242 3243 3244 3244 3245 3245 3246 3246 3246 3246 3246 3246 3246 3246 3246 3246 3246 3246 3247 3247 3247 3248 3248 3248 3248 3249 3250 3251 3252 3252 3254 3255 3253 3253 3253 3252 3252 3252 3251 3251 3250 3250 3250 3250 3250 3249
3176 3179 3181 3183 3185 3188 3190 3193 3196 3198 3200 3202 3205 3207 3209 3212 3213 3215 3217 3220 3222 3223 3225 3226 3227 3229 3230 3232 3233 3234 3235 3236 3237 3238 3239 3240 3240 3241 3242 3242 3243 3244 3245 3245 3246 3246 3247 3247 3247 3247 3247 3247 3247 3247 3247 3248 3248 3248 3248 3248 3248 3249 3249 3249 3250 3251 3251 3251 3252 3254 3256 3256 3255 3253 3253 3253 3252 3252 3252 3251 3251 3251 3251 3251 3251
3174 3176 3179 3181 3183 3186 3188 3191 3194 3196 3198 3201 3203 3206 3208 3209 3212 3214 3216 3218 3220 3222 3223 3225 3226 3228 3230 3231 3232 3234 3235 3236 3237 3238 3239 3240 3240 3241 3242 3242 3243 3244 3245 3246 3246 3247 3247 3248 3248 3248 3249 3249 3249 3249 3249 3249 3249 3249 3249 3249 3249 3249 3250 3250 3250 3251 3252 3252 3252 3253 3255 3255 3255 3254 3253 3253 3253 3253 3253 3253 3253 3252 3252 3252 3252
Wind_Speed
23 22 24 27 25 24 23 22 23 22 22 21 21 20 19 19 18 17 16 15 14 13 12 11 10 8 8 7 6 5 5 4 3 3 3 4 3 2 2 3 4 4 4 4 4 4 4 4 4 4 5 5 5 6 6 7 6 5 5 5 6 6 6 7 7 7 6 6 5 5 6 6 5 4 5 7 7 8 9 9 10 10 9 10 12
22 21 23 25 26 26 24 23 22 21 21 19 19 18 18 17 16 15 15 14 13 12 10 9 8 7 6 5 5 4 3 3 2 2 3 3 2 0 1 3 5 5 4 4 4 4 5 5 6 6 8 8 7 7 7 7 6 5 5 5 5 5 5 5 6 6 5 4 4 4 6 7 6 5 7 7 8 8 8 9 9 9 9 11 12
23 23 22 23 24 24 24 23 22 21 19 17 16 16 16 16 14 14 13 13 12 11 9 8 7 6 5 4 4 4 3 3 3 3 4 3 2 1 2 5 5 5 4 4 4 5 5 6 7 7 9 10 9 9 8 8 7 6 5 5 5 5 4 5 5 5 4 4 5 5 7 7 6 6 8 8 8 8 8 9 9 9 10 11 11
24 24 24 23 22 21 21 21 21 19 18 16 15 14 14 13 13 12 12 12 11 10 8 7 6 5 5 5 5 5 5 4 4 4 4 4 3 3 5 6 6 5 5 5 5 6 6 6 7 7 9 10 11 10 9 10 9 8 6 5 5 5 6 6 5 5 4 5 5 6 6 6 6 7 8 8 9 8 9 9 8 9 10 10 10
24 25 25 24 22 21 20 19 18 17 16 15 14 13 13 12 12 11 11 11 10 9 8 7 7 7 7 7 7 6 5 5 5 4 4 5 4 6 7 7 7 6 6 6 6 7 7 7 8 8 9 10 11 11 9 10 10 8 7 7 7 6 7 7 6 5 5 5 5 6 6 6 8 8 8 9 8 8 8 8 9 10 9 9 10
24 24 24 23 22 20 20 19 17 16 15 14 14 13 13 12 12 11 11 11 11 10 10 10 10 9 9 8 8 6 6 6 7 7 7 7 7 8 8 8 7 7 7 7 7 8 8 8 9 9 10 10 11 11 11 10 9 9 8 7 8 7 7 7 6 6 4 4 4 5 7 7 9 9 9 10 9 8 7 7 8 8 8 8 9
23 22 21 21 20 19 18 17 16 15 14 14 14 13 13 13 13 13 13 13 13 13 13 12 11 9 9 8 8 7 7 8 8 8 8 9 9 9 9 8 8 8 8 7 7 8 10 9 8 10 11 10 11 12 12 11 9 9 8 8 8 7 8 7 6 7 5 4 6 6 6 8 9 9 9 11 10 8 7 7 7 7 8 8 10
22 21 20 19 18 17 16 16 15 15 16 15 15 15 15 16 16 16 15 15 14 13 12 11 10 9 9 9 8 8 9 9 9 9 9 9 10 10 9 9 9 9 8 7 7 8 10 9 8 9 10 11 11 12 12 10 10 10 9 9 9 9 8 7 7 8 6 6 8 7 7 8 9 9 10 10 10 8 7 7 7 7 9 9 11
21 20 19 18 17 16 15 16 16 17 17 16 16 17 17 17 17 17 16 14 13 12 11 10 10 9 9 9 8 8 9 9 9 9 9 10 10 10 10 9 9 9 9 8 7 8 11 10 9 9 9 10 11 11 11 11 11 11 11 11 10 9 8 7 7 8 7 7 8 9 8 9 10 10 11 10 10 9 7 8 9 9 11 11 12
21 19 18 17 16 15 15 16 17 18 18 17 17 17 17 17 17 15 14 13 12 11 11 11 10 9 9 9 9 9 10 10 10 10 10 10 10 10 10 10 9 9 8 7 7 7 10 11 9 8 9 10 10 11 11 11 12 12 12 12 11 9 9 7 8 11 11 10 9 11 11 11 11 11 12 11 10 10 9 11 11 11 12 13 14
20 19 17 16 16 16 16 18 18 18 18 18 17 17 16 16 15 14 12 12 11 11 11 11 11 9 9 9 10 10 10 11 11 10 10 10 11 10 10 10 9 8 8 7 7 7 9 11 10 8 9 10 10 11 11 11 12 13 12 12 11 10 9 9 10 12 14 14 11 12 14 13 13 12 13 12 11 11 13 13 12 13 14 14 14
19 18 17 16 16 16 17 18 19 19 18 18 17 16 16 15 14 13 12 11 11 11 11 11 11 10 10 10 11 11 11 11 11 10 11 11 12 12 10 10 9 8 7 7 7 8 8 9 10 9 8 9 11 11 11 12 12 12 12 13 12 11 11 11 12 13 14 16 13 13 16 15 14 13 14 14 13 13 15 15 14 14 15 15 15
20 18 16 15 16 17 17 18 19 18 18 17 16 15 15 14 13 13 11 11 11 11 11 11 11 11 12 12 11 12 11 11 11 11 12 12 12 12 10 10 9 8 7 7 7 8 8 8 9 8 8 10 11 11 11 11 11 11 12 12 12 12 13 12 13 12 13 15 16 16 16 15 14 14 14 15 15 15 15 16 16 16 15 15 15
19 17 16 15 16 16 16 17 18 19 18 17 16 15 14 13 13 12 11 11 11 11 11 11 11 12 12 12 12 12 12 12 11 12 12 12 12 12 11 11 10 8 8 8 8 8 8 7 8 8 8 11 12 11 11 10 11 11 11 12 11 12 12 13 13 12 12 13 17 19 17 16 15 14 15 15 16 16 16 16 16 15 15 15 14
18 17 15 15 15 16 16 17 18 18 17 16 15 14 13 13 12 12 11 11 12 12 12 11 12 12 11 11 12 13 12 12 11 11 11 11 11 12 11 11 10 8 8 9 9 9 8 7 8 8 9 11 12 12 11 10 10 11 11 11 11 12 12 13 13 12 12 11 14 19 17 15 15 15 15 15 16 16 15 15 15 15 14 14 13
18 16 15 14 15 15 15 17 18 18 17 15 15 13 12 12 12 12 11 12 13 13 12 12 12 12 12 12 12 12 12 11 11 11 11 11 11 11 10 10 9 8 7 9 9 10 10 9 8 8 10 11 12 12 11 10 11 11 11 11 13 14 12 13 13 11 12 11 13 16 15 14 14 15 15 15 15 15 15 14 14 14 13 13 12
17 16 14 14 14 14 15 17 18 16 15 14 13 13 12 11 11 12 12 12 13 13 13 12 12 12 12 12 12 12 11 11 11 11 11 12 12 11 11 11 10 10 8 9 10 10 11 11 10 8 11 12 13 12 11 11 11 12 13 14 15 15 12 12 12 10 10 11 12 13 14 14 14 14 14 15 14 14 14 13 13 12 12 12 11
16 16 13 13 13 13 14 16 17 15 14 13 13 12 11 11 12 12 12 12 13 13 13 13 13 12 12 12 12 12 11 12 12 11 12 13 13 12 13 13 12 12 11 11 11 11 11 12 11 10 12 13 14 13 12 12 12 12 14 15 16 16 13 12 10 9 9 12 13 12 13 14 14 13 13 14 13 13 13 12 11 11 11 11 11
16 15 13 12 12 13 14 16 15 14 13 12 12 12 11 11 12 12 12 12 13 13 12 13 13 13 12 12 12 12 12 12 12 12 12 13 13 13 13 13 12 12 12 12 12 12 13 13 12 11 12 13 14 13 12 12 12 12 13 14 16 16 14 12 9 8 8 10 11 11 12 12 12 12 12 12 12 12 11 11 10 10 10 10 10
16 15 13 13 13 13 15 15 15 14 13 12 13 12 11 12 12 12 12 12 12 12 12 12 13 12 12 12 12 12 12 12 12 12 13 12 12 12 13 13 12 12 12 12 12 13 13 13 13 13 13 13 14 13 13 12 11 11 12 13 14 14 14 12 9 8 8 8 9 10 10 10 10 11 10 10 10 10 10 10 9 9 9 9 9
17 15 14 13 13 14 15 15 15 14 13 13 13 12 13 12 12 12 12 12 12 12 12 12 12 12 12 12 12 12 12 12 11 12 12 12 12 11 11 11 11 12 12 12 12 13 13 13 14 14 14 14 14 14 13 12 12 11 11 12 12 13 13 12 10 8 7 7 8 8 9 8 8 9 8 8 8 8 8 9 8 8 8 7 7
17 16 15 14 14 15 15 15 15 14 14 14 14 13 13 13 13 13 12 12 12 11 12 12 12 12 11 11 12 11 11 11 11 11 11 11 11 11 10 10 10 11 11 10 10 12 13 13 14 14 14 14 14 13 13 12 11 11 11 11 11 12 12 11 11 9 8 8 8 7 8 7 7 6 6 7 6 7 7 7 8 7 6 6 6
17 16 15 15 15 15 16 15 14 14 15 14 14 14 13 13 13 13 13 12 11 11 12 12 12 11 10 11 12 11 11 11 11 10 9 10 10 9 9 9 9 10 9 9 10 11 12 13 13 13 14 14 13 12 12 11 11 11 11 11 11 11 10 10 11 10 9 9 9 8 8 7 6 5 5 5 5 5 5 5 6 6 5 5 5
17 16 16 16 16 16 17 16 15 15 15 14 14 14 13 13 13 13 13 12 12 12 12 12 12 11 10 11 11 11 12 11 10 9 8 9 9 8 8 8 9 9 9 9 9 10 11 12 12 12 13 13 12 12 12 11 11 11 10 10 10 10 9 10 10 10 10 10 10 10 9 9 8 6 5 5 5 4 4 4 5 5 5 5 4
17 16 16 16 16 16 17 17 16 16 15 15 14 14 13 13 13 13 13 12 12 12 12 12 12 12 11 11 10 10 10 10 9 8 8 9 8 7 8 8 8 9 9 9 8 9 10 11 11 12 12 12 12 11 11 11 10 10 9 9 9 8 9 9 9 9 9 10 10 10 9 9 8 8 7 6 5 5 4 4 4 5 5 4 4
18 16 16 16 17 17 17 17 17 17 16 16 15 14 13 13 13 13 13 13 12 12 11 10 12 13 12 11 10 9 8 8 8 7 7 9 8 7 8 8 8 8 8 8 8 8 8 9 10 11 11 12 11 10 11 10 10 9 9 8 7 7 7 8 8 7 8 8 8 9 9 9 8 8 8 8 7 6 5 4 4 5 5 4 3
17 16 16 17 18 17 17 18 18 18 17 16 16 15 13 12 12 13 13 13 12 12 11 10 11 12 12 12 10 8 7 7 7 7 7 9 9 7 7 6 6 7 7 6 7 8 8 8 9 9 11 11 10 11 11 10 10 9 8 8 7 7 6 6 7 7 7 7 6 7 8 8 8 8 8 9 9 8 7 6 6 5 5 4 3
18 17 16 17 18 18 18 18 18 18 17 16 16 15 14 13 13 13 13 13 13 12 11 10 11 12 11 11 9 8 7 7 7 6 6 8 8 7 7 6 6 6 5 6 7 8 7 8 8 8 10 10 10 11 11 11 10 9 9 8 7 6 6 6 6 6 6 6 5 6 6 7 7 7 8 9 9 9 8 8 7 6 6 5 3
18 17 16 17 19 18 18 19 19 18 16 16 15 15 14 14 14 13 13 14 14 12 12 12 12 12 11 10 9 8 8 7 7 7 6 7 7 6 7 6 6 6 5 6 6 7 7 8 8 8 9 10 10 10 10 11 10 9 8 8 8 7 6 5 5 5 5 5 5 5 5 5 6 6 7 8 9 9 9 8 8 8 8 7 6
18 17 16 17 19 19 18 19 19 18 17 15 15 14 14 15 14 14 14 15 14 13 13 13 12 11 10 9 8 8 9 8 7 7 6 6 6 6 6 6 6 5 6 6 7 7 7 7 7 8 9 9 10 10 10 10 10 8 7 8 8 7 7 6 5 5 4 5 5 4 4 4 5 5 5 6 7 8 8 8 8 9 8 8 8
19 18 17 17 19 19 18 19 19 17 17 15 14 14 14 15 14 14 15 15 14 15 14 13 12 10 9 9 8 8 9 9 8 6 6 5 5 5 4 5 5 5 6 7 7 8 7 7 8 9 9 9 10 10 11 11 9 8 7 7 8 8 7 6 6 4 4 5 5 4 4 4 4 5 5 6 6 7 7 7 7 7 7 8 8
20 18 17 18 19 19 19 19 20 18 16 15 15 15 15 15 15 15 15 15 15 15 14 12 11 10 9 8 8 8 7 7 7 6 6 5 5 5 4 6 6 5 6 6 7 7 7 7 8 9 9 9 10 10 11 11 9 8 6 7 7 7 6 6 6 4 4 4 4 5 5 5 5 6 6 6 7 7 7 7 6 7 7 8 8
20 18 17 18 19 20 19 19 20 18 17 16 15 16 16 16 16 16 15 16 16 15 13 11 10 9 8 8 8 8 7 6 6 5 6 6 6 5 5 7 7 5 6 6 7 8 6 7 7 8 9 9 10 11 10 10 9 7 6 6 6 6 5 5 5 5 5 4 5 6 5 5 5 5 6 6 7 7 7 7 7 7 8 8 8
21 19 17 18 19 20 19 19 19 19 17 16 16 17 17 17 16 16 16 16 15 14 12 10 9 8 8 8 8 8 7 6 5 5 5 6 6 5 6 7 6 5 5 5 7 8 7 7 7 8 9 8 10 11 9 9 8 7 6 6 6 5 4 5 5 5 4 4 5 5 5 5 5 5 5 6 6 7 7 7 7 8 8 8 7
21 19 18 18 19 21 20 19 19 19 19 17 18 18 17 17 17 16 17 16 15 13 11 10 9 8 8 7 8 8 7 6 5 5 5 6 6 6 7 7 6 7 7 6 8 8 7 7 7 8 8 7 9 10 9 8 7 7 6 5 5 5 4 4 4 4 4 4 4 4 5 6 5 5 6 6 7 7 7 7 7 8 8 7 7
22 20 19 18 19 21 21 19 19 20 19 19 19 19 18 17 17 17 17 16 15 13 12 11 10 9 8 7 8 8 7 6 5 4 5 7 6 6 8 7 7 7 7 8 8 8 8 8 7 7 7 7 9 10 9 8 7 6 6 5 5 5 4 4 4 4 4 4 4 4 4 5 5 6 6 6 7 8 7 7 7 7 7 7 6
22 21 19 18 18 20 21 20 20 20 19 20 20 19 18 17 16 17 18 17 15 14 13 11 10 8 8 7 8 8 7 6 5 4 5 7 6 6 8 8 7 7 7 8 8 8 9 8 7 6 6 7 9 9 8 8 7 6 5 4 5 5 5 4 4 5 4 4 4 4 5 5 6 6 6 7 7 8 8 7 6 6 7 7 6
22 21 20 19 18 19 21 21 20 20 20 20 20 20 19 17 17 17 18 17 16 15 14 12 10 8 8 8 8 8 7 6 6 4 5 7 7 7 8 8 6 6 7 8 8 8 8 8 7 6 6 7 9 8 7 7 6 6 5 5 5 5 5 5 4 4 4 4 4 4 4 4 5 6 6 7 7 8 8 7 6 6 6 6 7
24 23 22 21 19 20 22 22 22 22 21 21 21 20 19 18 17 17 18 17 17 16 14 13 11 9 8 8 8 8 8 7 6 5 5 6 7 7 8 8 7 7 7 8 9 8 8 7 6 6 7 7 8 8 6 6 6 5 5 5 4 5 6 6 5 5 4 5 5 4 4 4 4 4 5 6 6 6 7 7 6 7 7 7 7
25 24 24 23 22 22 22 24 24 23 22 22 22 21 20 20 18 17 17 17 16 15 15 14 13 10 8 8 8 8 8 7 6 5 5 5 7 7 6 7 8 8 8 9 9 9 9 7 6 6 6 7 7 7 6 6 5 5 5 5 6 6 7 6 5 5 5 5 5 4 4 4 4 4 4 4 4 5 5 6 5 5 6 6 6
27 26 26 26 25 23 22 23 24 24 23 23 22 22 22 21 19 17 17 16 15 14 14 14 13 11 9 9 8 7 8 7 6 6 5 5 6 6 6 7 8 8 8 10 10 9 9 7 7 7 7 7 7 6 6 5 5 5 4 5 6 7 7 6 6 6 5 5 5 5 5 5 4 3 3 2 2 3 3 4 4 4 5 5 4
29 28 27 26 25 25 24 23 24 24 23 23 22 22 22 21 19 17 16 16 15 14 13 14 13 12 10 9 8 7 7 7 6 6 4 4 5 6 6 6 7 8 7 9 9 8 8 7 7 8 8 7 6 6 6 5 4 4 5 5 6 7 6 5 5 5 5 6 6 5 6 6 5 4 3 3 2 1 2 3 4 5 6 6 5
30 29 28 27 26 26 26 24 24 24 24 24 23 22 21 21 20 18 17 16 15 15 14 14 13 13 12 10 9 8 7 6 6 5 4 4 4 5 5 5 7 8 6 7 9 8 8 8 8 8 8 7 6 5 5 4 4 5 5 5 6 6 5 4 4 5 5 5 6 6 6 6 6 5 5 5 4 3 3 4 5 6 7 8 7
30 30 29 29 28 28 27 26 25 25 25 25 24 23 22 22 21 20 19 18 18 17 16 14 13 13 12 11 10 8 7 6 5 5 4 3 4 4 4 5 6 6 5 6 8 8 8 8 8 7 7 7 7 5 4 4 4 4 5 5 6 5 4 4 3 4 4 3 4 6 5 4 4 5 5 5 5 4 5 5 6 6 6 7 7
30 30 30 29 29 28 28 27 26 26 26 26 25 24 24 23 23 23 22 21 20 18 17 15 14 13 12 11 10 9 8 7 6 5 4 3 3 4 3 4 5 5 4 5 7 8 8 8 9 8 7 8 7 6 5 4 3 4 4 5 8 7 5 3 2 2 4 0 4 5 5 3 3 6 5 5 6 5 6 6 6 7 6 6 6
30 29 30 30 29 29 28 27 27 26 26 26 26 26 25 24 24 24 23 22 20 18 17 15 14 13 12 12 11 10 9 8 7 6 5 4 4 4 3 3 4 4 4 4 5 7 7 8 9 9 8 7 7 7 6 5 4 5 5 6 9 7 7 8 4 2 5 2 3 3 6 5 4 6 6 5 7 6 6 6 6 6 6 5 6
29 29 30 30 30 30 29 28 28 27 26 26 26 26 26 25 25 24 23 22 20 18 17 16 15 14 13 13 12 11 10 8 8 7 6 5 5 5 4 3 3 3 3 3 4 5 7 7 8 9 8 7 7 7 6 6 6 6 5 7 8 6 6 9 6 4 7 5 3 2 4 7 4 4 6 5 7 7 5 5 4 4 5 5 5
29 29 30 30 31 30 29 29 29 28 28 27 27 27 26 26 25 24 24 23 21 20 19 18 17 16 15 14 13 12 11 10 9 7 7 6 6 6 6 5 3 3 3 3 3 4 5 6 7 8 8 7 7 7 6 7 7 6 5 5 7 6 6 6 4 6 7 5 7 6 0 4 3 3 3 3 3 4 3 3 4 4 5 6 7
29 28 29 30 31 31 30 30 30 29 29 28 27 27 26 26 26 26 25 24 23 22 21 20 20 18 17 16 14 13 12 11 10 9 8 7 7 7 7 7 5 4 4 4 3 3 5 5 6 7 7 8 8 7 7 7 7 7 7 6 6 7 7 8 8 8 8 6 7 7 2 6 4 4 1 3 2 3 3 4 5 5 6 7 9
30 29 29 30 31 31 30 30 30 30 30 28 27 27 27 27 27 27 26 25 24 24 23 23 22 21 19 18 16 14 13 12 11 10 9 8 8 8 8 8 7 5 5 5 4 3 4 4 5 5 6 7 8 8 8 8 8 8 8 7 7 8 6 7 9 7 8 11 9 8 5 5 2 1 2 4 3 3 4 6 7 8 9 10 11
30 30 31 31 31 30 30 30 30 30 31 29 28 28 28 28 28 27 27 26 25 25 24 24 23 22 20 19 18 16 14 13 12 11 10 9 9 9 9 9 8 7 6 5 5 4 3 3 4 4 5 6 7 8 8 8 9 9 9 8 7 8 8 8 8 6 7 9 7 6 6 6 4 2 4 4 5 6 7 9 10 12 12 12 12
Wind_Direction
137 136 130 127 127 127 127 127 127 128 129 131 131 130 129 129 131 131 131 130 130 129 129 129 126 122 120 119 116 108 96 87 81 86 103 116 116 79 16 29 60 88 93 86 71 51 49 63 78 96 110 111 116 120 138 150 160 170 177 187 192 196 195 196 192 196 199 197 193 177 180 170 167 172 138 121 114 105 95 90 85 75 69 67 63
135 133 131 129 130 131 133 130 128 128 129 130 130 129 129 130 131 132 134 133 132 132 132 131 129 125 123 123 116 102 91 90 91 114 130 134 144 153 12 61 80 90 89 79 59 50 66 85 98 109 113 112 117 122 142 151 152 153 158 167 162 165 179 189 187 187 185 181 177 179 179 169 184 173 143 133 116 109 106 97 91 80 70 66 64
135 134 132 131 131 132 133 131 130 129 129 129 129 129 130 133 135 136 137 136 136 137 138 138 133 133 138 129 110 102 105 112 119 139 153 159 175 177 94 91 93 89 80 65 51 57 78 96 101 100 103 107 112 114 128 134 128 133 139 134 130 138 144 152 164 162 141 141 153 163 164 159 176 165 150 141 123 122 115 103 96 84 72 67 70
138 137 134 133 133 133 133 132 131 130 130 129 129 130 133 136 137 140 141 141 144 146 147 147 146 147 143 127 115 113 114 123 130 138 153 162 164 135 108 100 97 88 72 58 62 77 86 92 90 87 93 99 107 111 118 120 119 124 122 111 109 117 117 125 138 136 123 133 152 154 152 152 164 163 157 142 127 125 115 108 98 83 73 70 74
139 138 136 135 135 137 136 134 133 132 131 130 132 135 136 137 137 140 141 144 146 147 148 146 143 136 127 120 118 116 116 115 109 104 120 131 127 118 107 100 95 82 69 67 82 94 91 89 89 87 91 96 102 106 108 112 116 115 110 104 101 105 109 116 118 115 116 133 153 149 142 149 154 152 147 135 122 113 107 102 92 82 73 72 75
139 138 136 136 137 138 136 135 136 134 133 132 135 136 134 134 134 135 135 136 134 132 130 126 122 120 119 116 110 104 104 94 86 88 103 111 111 112 105 98 90 76 72 78 90 97 94 93 93 93 95 98 103 106 109 111 113 112 111 109 105 104 102 102 101 100 105 125 145 145 138 142 142 144 145 136 122 113 105 93 85 81 73 73 75
138 137 135 136 137 137 135 135 136 135 134 133 134 133 132 131 130 129 127 124 120 119 116 113 112 113 111 103 98 92 87 83 86 91 96 102 105 107 102 95 87 76 78 84 89 94 95 94 94 96 99 100 98 101 105 110 114 115 112 106 100 95 93 95 96 98 107 123 132 143 141 135 130 134 136 126 119 117 109 95 85 80 76 74 73
138 137 136 135 136 136 136 136 136 136 135 134 133 132 130 129 127 123 119 116 115 114 112 112 110 108 102 94 94 90 83 82 87 88 88 95 103 105 100 96 88 82 86 87 82 89 93 92 93 92 96 100 99 98 102 107 109 108 103 97 93 92 95 101 105 105 118 124 124 138 139 128 118 119 120 115 117 119 111 99 90 84 78 74 75
140 139 138 137 137 138 139 138 137 137 136 134 133 131 129 126 123 119 116 115 114 112 112 112 106 102 98 95 94 90 88 85 83 83 85 91 102 107 103 96 88 85 90 90 81 83 90 91 94 96 98 103 103 102 103 103 100 99 95 92 90 89 88 96 106 102 108 115 122 132 132 124 113 112 113 112 113 112 109 99 91 87 82 80 80
144 141 140 140 140 141 141 139 140 140 137 134 133 131 128 125 121 120 120 118 115 112 112 109 105 103 98 96 95 96 95 88 81 82 87 90 98 107 106 99 92 92 95 99 92 78 84 92 98 102 106 106 106 103 100 99 97 95 91 88 84 81 77 80 91 94 109 126 134 130 127 122 111 108 109 106 105 104 102 95 91 91 89 85 84
146 144 142 142 143 144 142 141 142 142 138 136 135 133 130 127 124 123 121 118 114 110 109 108 108 108 100 98 98 99 96 89 83 82 88 88 91 99 103 101 99 101 102 101 95 81 82 94 100 101 106 111 111 105 101 99 96 93 87 82 80 78 70 73 88 95 111 122 123 120 121 119 109 107 107 103 103 102 98 95 95 95 91 88 86
148 146 144 144 146 144 141 141 143 143 140 137 135 133 131 128 126 124 121 117 114 111 111 111 111 106 99 98 98 96 93 91 90 89 89 86 88 93 97 101 104 104 100 97 92 88 86 94 103 105 110 118 115 105 101 101 97 93 86 80 79 78 69 73 90 96 104 111 112 111 113 111 107 108 106 103 105 103 101 102 101 96 92 90 89
150 147 146 147 147 142 140 141 143 145 142 138 135 132 131 128 127 124 121 116 113 114 114 114 111 102 96 96 97 96 95 95 96 97 95 90 91 95 99 101 102 99 94 92 89 90 88 91 103 105 110 118 112 103 100 101 100 95 87 79 77 78 75 74 85 95 101 111 116 114 109 104 104 106 105 106 108 105 103 102 99 95 93 93 92
151 148 148 148 146 142 141 142 144 148 145 139 134 132 132 128 126 123 118 114 112 113 112 113 111 101 94 95 98 98 97 96 97 97 93 92 93 97 99 97 96 95 91 87 85 90 88 85 93 93 102 112 109 103 100 99 98 94 88 83 79 79 80 79 81 91 100 109 114 113 111 108 108 111 112 112 110 105 102 99 97 97 95 95 95
153 150 148 147 145 143 143 144 146 147 146 139 131 131 131 127 123 120 118 117 115 114 113 111 107 101 97 98 99 97 97 96 96 93 90 90 93 96 95 93 92 90 89 87 84 84 83 81 86 89 100 109 109 105 100 96 94 91 90 85 80 78 78 80 81 84 90 96 102 105 107 108 110 113 114 113 110 107 104 101 99 98 96 96 95
155 152 146 146 144 144 144 144 146 146 143 138 134 132 129 125 120 120 121 121 119 118 117 110 103 100 101 101 98 96 97 96 91 87 89 90 89 92 92 92 93 90 87 88 87 85 87 92 93 93 97 100 101 102 98 96 95 92 90 85 80 80 77 78 82 81 83 84 86 94 99 102 108 112 114 113 111 109 105 101 98 97 96 95 92
154 152 144 145 145 143 143 143 145 144 140 138 136 133 130 126 122 123 124 123 121 119 117 111 105 102 103 102 99 98 98 96 93 90 91 93 91 90 91 91 92 92 90 86 85 86 90 100 108 109 107 105 102 101 100 98 96 95 90 85 84 85 85 82 84 86 91 94 88 91 99 105 110 113 115 115 113 110 106 102 98 97 97 96 94
153 154 145 143 144 140 140 144 145 144 141 140 140 136 133 131 127 125 124 123 119 118 116 113 110 107 106 105 103 102 100 100 100 98 94 93 93 91 90 89 89 91 92 89 87 87 88 98 109 111 113 111 108 104 99 95 94 94 90 86 85 86 87 85 83 83 87 93 92 95 102 109 113 113 114 114 113 111 108 105 101 99 99 99 97
152 153 147 143 143 139 143 146 145 147 145 145 148 143 139 136 131 127 124 123 120 119 116 112 111 110 110 107 107 106 105 106 106 102 97 94 93 91 90 89 89 88 90 92 91 89 87 91 95 96 98 97 97 95 91 91 91 91 88 84 84 84 86 85 83 81 79 82 88 97 102 108 111 112 113 113 112 111 110 108 103 100 99 100 96
156 153 150 147 143 143 148 150 148 149 149 152 155 148 144 139 133 129 125 124 124 122 117 113 113 112 112 111 110 109 107 106 106 104 100 98 96 93 92 91 90 87 87 89 89 89 88 88 89 86 84 83 83 85 86 87 87 86 83 80 82 83 84 87 87 86 93 97 98 102 103 107 109 110 112 114 114 113 112 110 105 100 98 98 97
160 155 153 149 145 151 153 154 153 153 154 155 156 150 145 142 138 133 130 130 128 125 120 115 114 113 115 118 115 111 109 107 105 105 104 102 98 95 94 93 91 88 85 85 85 86 87 87 88 86 83 81 80 81 83 83 81 80 77 78 83 85 86 89 88 87 101 115 115 113 110 110 112 113 113 116 117 115 115 112 108 103 99 98 96
162 157 157 152 150 155 156 157 157 156 156 155 154 151 149 148 144 139 137 136 132 128 120 117 116 116 121 123 116 111 110 108 105 103 104 102 99 96 95 92 89 87 85 83 84 83 85 86 85 87 87 85 81 80 80 80 80 77 75 77 80 84 88 90 88 86 94 106 112 114 112 111 114 116 118 122 123 120 120 119 115 109 103 98 92
163 160 160 156 154 155 157 161 159 153 151 153 151 151 152 152 148 142 141 138 133 129 122 122 123 124 130 123 114 111 107 104 105 103 103 101 98 96 93 92 90 87 86 85 86 85 86 88 86 86 87 85 81 79 78 78 80 79 78 77 75 80 86 87 86 87 90 95 98 99 100 100 103 108 116 123 128 128 129 127 122 117 110 100 87
164 163 164 159 158 157 160 161 160 154 150 151 148 150 152 149 147 142 142 137 132 130 127 129 128 129 131 117 110 109 105 104 106 107 108 104 98 96 94 92 91 90 89 88 87 88 89 91 89 86 84 83 80 78 76 73 75 77 75 74 73 75 79 82 86 89 91 91 89 89 91 94 96 97 101 105 112 117 123 135 140 137 121 103 95
167 165 167 163 161 161 162 162 160 156 151 147 145 148 149 146 146 143 142 137 135 135 133 136 136 135 130 116 109 106 106 109 109 108 111 108 99 97 98 93 95 96 94 94 92 90 91 90 89 86 85 81 78 78 75 72 72 71 70 73 75 74 76 80 85 88 90 90 88 86 87 88 91 93 94 95 98 101 106 126 146 143 131 123 115
170 168 168 167 166 164 164 163 160 155 149 146 145 147 146 147 147 143 142 138 137 137 136 142 141 138 133 123 117 112 109 110 109 108 109 107 101 99 97 92 99 101 99 99 97 92 87 88 90 90 87 80 76 77 75 74 76 73 70 75 79 79 75 79 86 88 88 89 87 87 85 84 85 88 92 92 92 90 89 93 102 116 126 134 125
172 170 170 170 168 166 165 163 160 156 150 147 147 147 147 150 148 145 146 141 139 139 142 148 146 141 136 130 124 119 117 112 111 113 112 109 108 107 100 97 100 99 105 107 100 97 91 91 94 92 89 86 82 79 77 78 79 78 75 75 83 88 83 80 83 84 84 83 82 84 83 81 80 81 83 85 86 84 81 79 80 90 107 118 119
173 173 173 172 170 168 166 164 161 157 151 148 147 147 149 152 150 149 149 145 144 145 151 154 150 146 140 134 130 128 123 116 113 114 112 110 113 113 108 108 100 92 101 106 96 95 96 99 103 99 94 93 90 85 83 82 80 80 79 76 80 91 95 85 81 82 82 80 77 78 79 78 78 78 76 77 78 80 82 83 85 88 93 101 101
176 176 175 174 172 171 168 165 163 158 153 150 148 148 151 152 152 152 150 149 150 152 155 155 153 149 143 139 138 136 128 121 118 114 108 107 110 111 111 112 108 104 104 106 101 96 100 107 112 109 104 101 97 93 90 85 81 82 82 78 76 85 95 90 81 77 76 71 66 63 67 71 75 77 75 74 75 77 78 80 83 84 83 82 78
178 178 178 177 174 173 170 167 165 161 155 151 150 151 153 152 151 152 152 151 152 154 155 155 154 152 148 143 140 136 130 126 119 115 115 113 113 109 112 113 109 111 112 109 104 99 103 109 116 116 111 108 103 99 94 86 82 81 82 81 77 80 90 93 83 68 62 61 55 47 50 57 64 70 71 71 71 72 73 74 76 76 74 72 69
181 180 179 178 176 174 173 171 168 163 157 153 152 154 154 152 150 150 152 152 153 153 154 156 155 155 152 143 137 134 131 125 118 117 118 114 112 109 113 116 110 106 105 104 102 101 105 108 114 114 110 111 109 105 97 90 86 83 82 82 79 80 88 93 86 68 44 42 41 37 40 37 39 53 60 60 58 59 61 61 63 65 63 61 61
182 181 181 179 177 176 174 174 170 165 161 156 155 156 156 154 151 151 152 152 153 153 154 158 159 157 152 141 132 130 126 118 118 116 113 111 106 109 112 106 106 106 102 104 107 106 105 107 109 108 110 115 115 109 100 93 89 85 83 83 82 83 87 88 84 71 44 32 26 32 35 29 33 43 48 47 48 48 48 47 45 47 50 52 55
183 183 184 180 179 178 175 175 173 168 164 160 158 159 158 157 154 154 153 151 153 154 156 159 161 157 148 137 127 125 124 118 118 114 112 114 102 105 109 99 99 104 105 106 103 103 105 108 108 108 115 122 120 114 104 94 88 85 84 87 89 86 86 86 83 72 54 35 26 28 25 28 36 40 41 39 40 40 39 41 41 41 43 47 51
186 185 184 180 181 181 177 177 176 171 167 164 161 161 161 160 157 156 154 153 154 154 156 159 159 154 143 135 127 123 123 117 114 107 103 105 99 97 97 99 98 91 95 92 88 93 96 101 108 109 111 118 121 116 107 95 89 85 85 90 99 101 94 87 84 73 56 40 34 26 11 17 22 22 31 31 32 33 28 30 36 40 39 38 38
189 186 184 183 183 182 180 179 178 174 171 168 164 165 165 163 161 160 158 156 155 155 156 158 155 150 143 136 128 122 121 115 108 102 99 102 99 89 86 92 91 83 84 82 83 90 87 93 106 109 108 113 112 108 104 98 92 87 88 96 109 112 104 94 90 80 63 47 40 27 12 10 1 359 11 14 18 21 19 19 23 28 28 21 15
190 188 186 186 186 185 182 180 180 177 174 171 169 168 169 168 165 162 162 159 157 157 157 157 153 150 149 141 130 124 121 116 108 101 100 103 97 85 85 84 84 83 81 83 88 95 90 86 92 97 106 116 109 105 105 101 96 89 85 99 117 117 112 112 101 84 72 56 46 35 27 14 3 2 2 5 9 10 12 10 9 13 11 5 359
191 190 190 188 187 186 183 183 182 181 178 175 174 172 171 173 169 166 165 162 162 161 159 158 157 157 157 148 137 129 123 117 112 99 92 100 96 88 86 79 80 83 83 85 86 91 95 95 100 103 111 120 112 107 109 104 99 90 81 95 119 119 116 122 108 92 80 59 49 39 32 22 19 12 359 -0 2 1 2 355 354 -0 356 354 353
193 191 192 191 189 187 185 186 185 183 183 179 177 175 174 175 173 170 169 168 166 164 163 162 160 166 163 150 140 133 129 122 114 98 82 88 87 82 80 76 76 76 85 92 86 87 90 94 110 115 114 117 110 108 110 105 97 91 84 93 116 123 121 124 112 99 87 62 50 44 37 22 22 18 359 356 358 360 358 351 352 352 349 350 348
193 193 194 193 191 190 188 188 188 186 187 184 181 178 177 179 177 175 174 174 170 166 167 166 163 170 166 153 145 139 136 127 117 106 88 83 82 80 76 74 71 62 74 88 88 89 84 82 97 106 111 111 105 108 109 102 98 91 84 88 116 135 130 129 121 107 94 73 58 48 40 18 10 13 7 -0 358 358 353 355 358 345 337 339 333
194 194 195 195 194 194 192 191 190 189 189 188 185 182 181 182 182 179 178 178 176 172 170 168 167 171 169 163 157 148 142 134 123 113 100 90 88 87 78 73 72 61 65 80 85 87 84 80 88 96 107 108 105 110 111 107 101 93 91 98 121 138 133 131 125 107 92 78 63 44 28 19 12 10 15 10 359 351 346 357 4 341 328 324 320
196 197 197 197 196 196 197 194 193 192 192 192 190 186 184 185 184 183 181 181 181 179 176 173 172 173 173 171 166 156 148 142 131 121 113 101 93 91 81 71 74 68 63 74 80 84 86 80 84 94 103 106 112 118 116 113 106 102 108 111 126 139 136 132 127 109 91 78 69 55 40 33 32 40 39 29 9 346 347 13 23 7 349 340 339
198 198 198 199 198 198 199 198 197 195 193 195 195 191 188 186 186 187 187 184 184 185 184 182 180 179 179 177 173 165 155 149 138 129 125 114 101 93 86 77 82 81 71 76 78 81 83 78 79 89 92 94 106 119 116 116 115 117 120 124 137 141 134 131 122 102 86 77 73 66 60 52 45 65 86 76 71 43 17 28 29 25 22 21 25
200 200 200 200 200 200 200 199 199 198 195 196 198 195 191 188 188 190 192 190 189 191 191 190 187 184 184 182 178 172 165 157 146 137 133 125 114 103 94 87 88 87 82 86 88 84 79 80 82 86 94 93 93 111 120 118 111 111 117 124 135 128 110 107 110 102 97 89 84 70 55 57 56 61 82 82 75 67 51 38 31 30 31 33 37
203 202 202 201 203 203 201 200 200 199 197 197 199 198 195 192 191 193 195 196 196 194 194 194 194 192 189 186 182 180 175 166 160 149 143 142 127 115 104 95 94 92 86 84 87 83 72 75 79 81 91 89 85 100 120 126 114 116 123 121 129 126 83 65 63 83 104 80 75 79 53 39 59 57 65 75 69 67 58 44 38 38 37 39 42
207 205 204 204 205 206 203 202 202 201 199 198 200 200 198 196 195 196 198 200 199 195 195 197 198 197 194 190 187 186 182 175 176 166 156 162 144 127 110 98 97 96 90 76 78 79 72 71 70 70 75 79 83 88 100 116 118 132 134 117 124 125 110 108 6 42 129 327 352 42 36 8 65 63 56 66 67 67 63 52 46 45 46 49 49
211 209 207 206 208 209 206 205 205 204 203 200 200 202 201 199 199 199 200 202 199 196 198 200 202 203 201 199 195 193 189 183 186 182 173 172 162 151 130 108 101 99 99 90 85 83 77 73 70 73 77 81 84 78 84 96 102 130 142 134 125 114 132 161 178 79 111 138 310 353 9 14 70 69 59 75 74 71 69 61 54 48 50 54 54
215 212 210 209 210 211 209 207 207 207 206 203 202 204 204 202 203 202 203 205 202 201 204 205 207 208 207 206 201 199 194 191 193 192 186 179 173 169 152 134 126 115 116 105 93 84 77 74 72 75 77 80 83 77 81 88 95 118 138 147 139 120 144 165 169 104 80 77 114 137 3 16 50 43 34 62 70 65 66 60 60 55 54 58 59
218 216 213 213 213 213 212 209 209 209 209 207 205 206 206 204 205 205 205 206 204 205 207 208 211 211 211 210 207 204 200 197 200 199 197 190 182 178 166 155 153 141 136 124 109 95 86 82 76 75 76 78 84 84 87 88 93 103 106 130 136 136 146 141 130 125 115 72 64 100 297 12 104 145 31 51 59 52 59 53 60 63 64 66 65
219 220 218 218 217 216 215 212 211 211 211 210 207 208 208 206 208 208 207 206 205 207 208 210 214 213 213 213 210 208 204 202 204 204 204 199 192 186 176 168 164 159 154 148 141 122 103 94 85 82 80 78 80 83 87 87 88 94 92 96 108 120 134 120 100 102 126 131 90 106 106 19 79 165 78 78 78 52 66 60 61 67 70 72 70
219 222 220 221 221 219 217 215 214 214 214 213 210 209 210 208 210 211 209 208 207 209 210 212 214 214 214 214 213 211 208 206 207 209 208 203 200 193 184 179 172 167 168 167 165 146 122 112 102 95 91 85 82 81 85 87 86 90 95 94 98 103 105 111 107 91 110 136 132 116 91 25 46 160 53 80 78 68 73 67 70 75 76 78 78
218 221 221 222 225 224 221 218 216 216 216 216 213 211 212 211 211 212 212 211 210 213 214 215 216 216 216 217 216 214 212 210 208 210 212 207 205 200 192 187 180 173 175 175 172 164 152 142 122 106 102 93 87 86 88 90 87 88 95 98 102 103 94 92 104 106 114 129 129 114 136 196 208 88 74 88 78 84 85 78 80 81 81 82 83